Saint Cloud, MN

9:35 PM CST on December 07, 2016 (GMT -0600)
Saint Cloud Regional

Weather History for KSTC - February, 2013

Change the Weather History Date:

Wednesday, February 13, 2013

  Actual Average Record
Temperature  
Mean Temperature 25 °F 16 °F  
Max Temperature 35 °F 26 °F 47 °F (2011)
Min Temperature 15 °F 6 °F -26 °F (1936)
Degree Days  
Heating Degree Days 40 49  
Month to date heating degree days 658 657  
Since 1 July heating degree days 5528 5759  
Cooling Degree Days 0 0  
Month to date cooling degree days 0 0  
Year to date cooling degree days 0 0  
Moisture  
Dew Point 26 °F    
Average Humidity 85    
Maximum Humidity 100    
Minimum Humidity 69    
Precipitation  
Precipitation 0.29 in 0.02 in 0.70 in (1897)
Month to date precipitation 1.21 0.23  
Year to date precipitation 1.66 0.88  
Snow  
Snow 3.50 in 0.30 in 4.60 in (2013)
Month to date snowfall 15.1 3.0  
Since 1 July snowfall 35.8 30.2  
Snow Depth 11.00 in    
Sea Level Pressure  
Sea Level Pressure 29.66 in    
Wind  
Wind Speed 5 mph (SSE)    
Max Wind Speed 10 mph    
Max Gust Speed 14 mph    
Visibility 4 miles    
Events Fog , Snow    
T = Trace of Precipitation, MM = Missing Value Source: NWS Daily Summary

Daily Weather History Graph

Daily Weather History Graph

Search for Another Location

Airport or City:

Trip Planner

Search our weather history database for the weather conditions in past years. The results will help you decide how hot, cold, wet, or windy it might be!

Date:

Astronomy

Feb. 13, 2013 Rise Set
Actual Time 7:20 AM CST 5:40 PM CST
Civil Twilight 6:50 AM CST 6:11 PM CST
Nautical Twilight 6:15 AM CST 6:46 PM CST
Astronomical Twilight 5:41 AM CST 7:20 PM CST
Moon 8:36 AM CST (2/13) 9:59 PM CST (2/13)
Length of Visible Light 11h 21m
Length of Day
10h 20m
Waxing Crescent, 14% of the Moon is Illuminated
Feb 13
Waxing Crescent
Feb 17
First Quarter
Feb 25
Full
Mar 4
Last Quarter
Mar 11
New

Hourly Weather History & Observations

Time (CST) Temp. Windchill Dew Point Humidity Pressure Visibility Wind Dir Wind Speed Gust Speed Precip Events Conditions
12:53 AM 19.9 °F 13.4 °F 15.1 °F 81% 29.83 in 10.0 mi SW 4.6 mph - N/A   Scattered Clouds
1:53 AM 19.0 °F 13.9 °F 15.1 °F 85% 29.82 in 9.0 mi SW 3.5 mph - N/A   Overcast
2:53 AM 16.0 °F 10.4 °F 12.9 °F 88% 29.81 in 8.0 mi SSW 3.5 mph - N/A   Scattered Clouds
3:53 AM 17.1 °F - 15.1 °F 92% 29.80 in 6.0 mi Calm Calm - N/A   Mostly Cloudy
4:53 AM 19.9 °F - 16.0 °F 85% 29.78 in 7.0 mi Calm Calm - N/A   Overcast
5:53 AM 17.1 °F - 14.0 °F 88% 29.78 in 5.0 mi Calm Calm - N/A   Mostly Cloudy
6:53 AM 18.0 °F - 16.0 °F 92% 29.76 in 5.0 mi Calm Calm - N/A   Overcast
7:53 AM 21.0 °F - 17.1 °F 85% 29.76 in 5.0 mi Calm Calm - N/A   Overcast
8:53 AM 19.9 °F 14.9 °F 17.1 °F 89% 29.75 in 6.0 mi SSW 3.5 mph - N/A   Clear
9:53 AM 26.1 °F 19.4 °F 19.9 °F 78% 29.73 in 9.0 mi SSW 5.8 mph - N/A   Clear
10:53 AM 30.9 °F 22.2 °F 23.0 °F 72% 29.72 in 10.0 mi South 10.4 mph - N/A   Clear
11:53 AM 32.0 °F 24.8 °F 25.0 °F 75% 29.71 in 10.0 mi South 8.1 mph - N/A   Clear
12:53 PM 33.1 °F 25.5 °F 25.0 °F 72% 29.69 in 10.0 mi South 9.2 mph - N/A   Clear
1:53 PM 34.0 °F 28.0 °F 25.0 °F 70% 29.67 in 10.0 mi South 6.9 mph - N/A   Partly Cloudy
2:53 PM 34.0 °F 28.0 °F 26.1 °F 73% 29.67 in 10.0 mi South 6.9 mph - N/A   Overcast
3:53 PM 34.0 °F 27.2 °F 27.0 °F 75% 29.67 in 6.0 mi South 8.1 mph - 0.00 in Snow Light Snow
4:01 PM 33.8 °F 26.4 °F 26.6 °F 75% 29.59 in 2.0 mi SSW 9.2 mph - 0.00 in Snow Light Snow
4:09 PM 33.8 °F 27.0 °F 28.4 °F 81% 29.59 in 1.5 mi South 8.1 mph - 0.00 in Snow Light Snow
4:49 PM 32.0 °F 27.5 °F 30.2 °F 93% 29.59 in 0.8 mi South 4.6 mph - 0.01 in Snow Light Snow
4:53 PM 32.0 °F 28.7 °F 30.0 °F 92% 29.65 in 0.5 mi SSE 3.5 mph - 0.01 in Fog , Snow Snow
5:09 PM 32.0 °F 27.5 °F 30.2 °F 93% 29.58 in 0.2 mi SE 4.6 mph - 0.02 in Fog , Snow Snow
5:21 PM 32.0 °F 27.5 °F 30.2 °F 93% 29.58 in 0.2 mi SE 4.6 mph - 0.03 in Fog , Snow Snow
5:48 PM 32.0 °F 25.6 °F 30.2 °F 93% 29.58 in 0.5 mi SE 6.9 mph - 0.06 in Fog , Snow Snow
5:53 PM 32.0 °F 26.4 °F 30.0 °F 92% 29.65 in 0.8 mi SE 5.8 mph - 0.06 in Snow Light Snow
6:11 PM 30.2 °F 23.4 °F 30.2 °F 100% 29.58 in 0.5 mi SE 6.9 mph - 0.02 in Fog , Snow Snow
6:53 PM 30.9 °F 26.2 °F 30.0 °F 96% 29.65 in 0.8 mi SE 4.6 mph - 0.06 in Snow Light Snow
7:26 PM 30.2 °F - 30.2 °F 100% 29.58 in 0.8 mi Calm Calm - 0.02 in Snow Light Snow
7:37 PM 30.2 °F - 30.2 °F 100% 29.58 in 0.5 mi Calm Calm - 0.04 in Fog , Snow Snow
7:53 PM 32.0 °F - 30.0 °F 92% 29.64 in 0.8 mi Calm Calm - 0.06 in Snow Light Snow
8:10 PM 30.2 °F - 30.2 °F 100% 29.57 in 0.5 mi Calm Calm - 0.01 in Fog , Snow Snow
8:48 PM 32.0 °F 27.5 °F 30.2 °F 93% 29.57 in 1.0 mi NE 4.6 mph - 0.03 in Snow Light Snow
8:53 PM 32.0 °F 27.5 °F 30.0 °F 92% 29.64 in 1.0 mi NNE 4.6 mph - 0.03 in Snow Light Snow
9:15 PM 30.2 °F 24.3 °F 28.4 °F 93% 29.57 in 1.0 mi NNE 5.8 mph - 0.01 in Snow Light Snow
9:53 PM 30.9 °F 24.3 °F 28.9 °F 92% 29.63 in 1.0 mi North 6.9 mph - 0.02 in Snow Light Snow
10:40 PM 32.0 °F 24.8 °F 28.4 °F 87% 29.59 in 1.0 mi North 8.1 mph - 0.02 in Snow Light Snow
10:50 PM 32.0 °F 25.6 °F 30.2 °F 93% 29.59 in 0.8 mi North 6.9 mph - 0.03 in Snow Light Snow
10:53 PM 32.0 °F 24.8 °F 30.0 °F 92% 29.65 in 0.8 mi North 8.1 mph - 0.03 in Snow Light Snow
11:03 PM 32.0 °F 24.2 °F 30.2 °F 93% 29.59 in 1.0 mi North 9.2 mph - 0.01 in Snow Light Snow
11:25 PM 32.0 °F 24.2 °F 30.2 °F 93% 29.60 in 1.2 mi North 9.2 mph - 0.01 in Snow Light Snow
11:53 PM 32.0 °F 24.8 °F 30.0 °F 92% 29.67 in 1.5 mi North 8.1 mph - 0.02 in Snow Light Snow